Location: Monroe
(41.9160°N, 83.3980°W)
Time: 10:03:59

ISS - Visible Passes

Search period start: 24 October 2016 00:00
Search period end: 03 November 2016 00:00
Orbit: 400 x 408 km, 51.6° (Epoch: 24 October)

Date Brightness Start Highest point End Pass type
(mag) Time Alt. Az. Time Alt. Az. Time Alt. Az.
30 Oct 0.0 07:18:12 10° SSE 07:19:37 12° SE 07:21:03 10° ESE visible
01 Nov -1.2 07:07:59 10° SSW 07:10:50 28° SE 07:13:42 10° ENE visible
02 Nov -0.4 06:16:32 10° S 06:18:32 15° SE 06:20:31 10° E visible
